Location: Franzen
(48.6167°N, 15.3833°E)
Time: 07:42:28
(UTC+00:00)

Transit 2A - Pass Details

Date: 08 August 2021
Orbit: 594 x 964 km, 66.7° (Epoch: 24 September)

Event Time Altitude Azimuth Distance (km) Brightness Sun altitude
Rises 04:40:31 0° 237° (WSW) 2,866 8.4 8.2°
Reaches altitude 10° 04:42:48 10° 245° (WSW) 1,994 7.6 8.5°
Maximum altitude 04:47:01 40° 315° (NW) 977 6.5 9.2°
Drops below altitude 10° 04:51:37 10° 26° (NNE) 2,175 9.0 10.0°
Sets 04:54:14 0° 33° (NNE) 3,161 10.0 10.4°
